EN

Hourly Weather Nevetlenfolu

Today, 29 November, Sunday

Time Temperature Precipitation Wind Pressure Humidity
00:00 -2°C° 0 mm 0 mps 754 mmHg 100%
01:00 0°C° 0 mm 1 mps 753 mmHg 100%
02:00 0°C° 0 mm 1 mps 753 mmHg 100%
03:00 0°C° 0 mm 1 mps 753 mmHg 99%
04:00 -2°C° 0 mm 2 mps 753 mmHg 98%
05:00 -2°C° 0 mm 2 mps 753 mmHg 98%
06:00 0°C° 0 mm 1 mps 752 mmHg 98%
07:00 -1°C° 0 mm 1 mps 752 mmHg 98%
08:00 -3°C° 0 mm 2 mps 752 mmHg 98%
09:00 -1°C° 0.1 mm 1 mps 753 mmHg 99%
10:00 -1°C° 0.2 mm 1 mps 753 mmHg 100%
11:00 0°C° 0.3 mm 1 mps 753 mmHg 99%
12:00 -1°C° 0.7 mm 0 mps 753 mmHg 100%
13:00 -1°C° 0.3 mm 0 mps 753 mmHg 98%
14:00 -1°C° 0.1 mm 0 mps 753 mmHg 97%
15:00 -1°C° 0.2 mm 0 mps 753 mmHg 99%
16:00 -1°C° 0 mm 0 mps 753 mmHg 97%
17:00 -1°C° 0 mm 0 mps 753 mmHg 97%
18:00 0°C° 0 mm 1 mps 753 mmHg 98%
19:00 -1°C° 0 mm 1 mps 753 mmHg 97%
20:00 -1°C° 0 mm 1 mps 753 mmHg 98%
21:00 -1°C° 0 mm 1 mps 754 mmHg 100%
22:00 -1°C° 0 mm 1 mps 754 mmHg 100%
23:00 -1°C° 0 mm 1 mps 754 mmHg 100%

Tomorrow, 30 November, Monday

Time Temperature Precipitation Wind Pressure Humidity
00:00 -3°C° 0 mm 2 mps 754 mmHg 99%
01:00 -1°C° 0 mm 1 mps 754 mmHg 100%
02:00 -4°C° 0 mm 2 mps 755 mmHg 100%
03:00 -2°C° 0 mm 1 mps 755 mmHg 100%
04:00 -2°C° 0 mm 1 mps 755 mmHg 100%
05:00 -3°C° 0 mm 1 mps 755 mmHg 100%
06:00 -3°C° 0 mm 1 mps 755 mmHg 100%
07:00 -3°C° 0 mm 1 mps 755 mmHg 100%
08:00 -3°C° 0 mm 1 mps 756 mmHg 99%
09:00 -4°C° 0 mm 0 mps 756 mmHg 98%
10:00 -4°C° 0 mm 0 mps 757 mmHg 97%
11:00 -2°C° 0 mm 1 mps 757 mmHg 97%
12:00 -2°C° 0 mm 1 mps 757 mmHg 97%
13:00 -2°C° 0 mm 1 mps 757 mmHg 97%
14:00 -1°C° 0 mm 1 mps 757 mmHg 97%
15:00 -2°C° 0 mm 1 mps 757 mmHg 97%
16:00 -2°C° 0 mm 1 mps 757 mmHg 98%
17:00 -2°C° 0 mm 1 mps 757 mmHg 100%
18:00 -3°C° 0 mm 0 mps 757 mmHg 100%
19:00 -4°C° 0 mm 0 mps 758 mmHg 100%
20:00 -4°C° 0 mm 0 mps 758 mmHg 100%
21:00 -4°C° 0 mm 0 mps 758 mmHg 100%
22:00 -4°C° 0 mm 1 mps 758 mmHg 100%
23:00 -5°C° 0 mm 0 mps 758 mmHg 100%

Day after tomorrow, 1 December, Tuesday

Time Temperature Precipitation Wind Pressure Humidity
00:00 -5°C° 0 mm 0 mps 758 mmHg 100%
01:00 -5°C° 0 mm 0 mps 758 mmHg 100%
02:00 -5°C° 0 mm 0 mps 758 mmHg 100%
03:00 -4°C° 0 mm 1 mps 758 mmHg 99%
04:00 -5°C° 0 mm 0 mps 758 mmHg 99%
05:00 -5°C° 0 mm 0 mps 758 mmHg 99%
06:00 -5°C° 0 mm 0 mps 757 mmHg 100%
07:00 -4°C° 0 mm 1 mps 758 mmHg 100%
08:00 -6°C° 0 mm 1 mps 758 mmHg 100%
09:00 -6°C° 0 mm 1 mps 758 mmHg 100%
10:00 -6°C° 0 mm 0 mps 757 mmHg 98%
11:00 -5°C° 0 mm 0 mps 757 mmHg 96%
12:00 -2°C° 0 mm 1 mps 757 mmHg 91%
13:00 -1°C° 0 mm 1 mps 757 mmHg 87%
14:00 0°C° 0 mm 1 mps 757 mmHg 86%
15:00 0°C° 0 mm 1 mps 756 mmHg 88%
16:00 0°C° 0 mm 1 mps 756 mmHg 92%
17:00 -2°C° 0 mm 2 mps 756 mmHg 92%
18:00 -2°C° 0 mm 2 mps 756 mmHg 88%
19:00 -2°C° 0 mm 2 mps 756 mmHg 84%
20:00 -3°C° 0 mm 2 mps 756 mmHg 80%
21:00 -3°C° 0 mm 2 mps 756 mmHg 79%
22:00 -3°C° 0 mm 2 mps 756 mmHg 76%
23:00 -3°C° 0 mm 2 mps 756 mmHg 73%

2 December, Wednesday

Time Temperature Precipitation Wind Pressure Humidity
00:00 -3°C° 0 mm 2 mps 756 mmHg 72%
01:00 -4°C° 0 mm 2 mps 755 mmHg 73%
02:00 -4°C° 0 mm 2 mps 755 mmHg 74%
03:00 -5°C° 0 mm 3 mps 755 mmHg 75%
04:00 -5°C° 0 mm 3 mps 755 mmHg 75%
05:00 -5°C° 0 mm 3 mps 755 mmHg 76%
06:00 -5°C° 0 mm 3 mps 755 mmHg 76%
07:00 -5°C° 0 mm 3 mps 755 mmHg 77%
08:00 -5°C° 0 mm 3 mps 755 mmHg 78%
09:00 -4°C° 0 mm 3 mps 755 mmHg 80%
10:00 -2°C° 0 mm 3 mps 755 mmHg 82%
11:00 -1°C° 0 mm 2 mps 755 mmHg 84%
12:00 0°C° 0 mm 3 mps 755 mmHg 81%
13:00 +2°C° 0 mm 3 mps 755 mmHg 76%
14:00 +2°C° 0 mm 3 mps 754 mmHg 77%
15:00 +2°C° 0 mm 3 mps 754 mmHg 81%
16:00 +2°C° 0 mm 3 mps 754 mmHg 87%
17:00 0°C° 0 mm 3 mps 754 mmHg 92%
18:00 0°C° 0 mm 3 mps 754 mmHg 91%
19:00 -1°C° 0 mm 3 mps 754 mmHg 92%
20:00 -1°C° 0 mm 3 mps 754 mmHg 92%
21:00 -1°C° 0 mm 3 mps 754 mmHg 91%
22:00 -1°C° 0 mm 3 mps 754 mmHg 90%
23:00 -1°C° 0 mm 3 mps 754 mmHg 89%

3 December, Thursday

Time Temperature Precipitation Wind Pressure Humidity
00:00 -2°C° 0 mm 3 mps 754 mmHg 89%
01:00 -2°C° 0 mm 3 mps 754 mmHg 90%
02:00 -2°C° 0 mm 3 mps 754 mmHg 90%
03:00 -2°C° 0 mm 3 mps 754 mmHg 90%
04:00 -2°C° 0 mm 3 mps 753 mmHg 90%
05:00 -2°C° 0 mm 3 mps 753 mmHg 90%
06:00 -2°C° 0 mm 3 mps 753 mmHg 90%
07:00 -2°C° 0 mm 2 mps 753 mmHg 90%
08:00 -2°C° 0 mm 3 mps 753 mmHg 89%
09:00 -1°C° 0 mm 2 mps 753 mmHg 89%
10:00 +1°C° 0 mm 2 mps 754 mmHg 87%
11:00 +2°C° 0 mm 3 mps 753 mmHg 84%
12:00 +4°C° 0 mm 3 mps 753 mmHg 81%
13:00 +5°C° 0 mm 3 mps 753 mmHg 79%
14:00 +5°C° 0 mm 3 mps 752 mmHg 78%
15:00 +5°C° 0 mm 3 mps 752 mmHg 81%
16:00 +5°C° 0 mm 2 mps 752 mmHg 88%
17:00 +4°C° 0 mm 2 mps 751 mmHg 92%
18:00 +2°C° 0 mm 3 mps 751 mmHg 92%
19:00 +2°C° 0 mm 3 mps 751 mmHg 91%
20:00 +1°C° 0 mm 3 mps 751 mmHg 91%
21:00 +1°C° 0 mm 3 mps 750 mmHg 90%
22:00 +1°C° 0 mm 3 mps 750 mmHg 90%
23:00 +1°C° 0 mm 3 mps 750 mmHg 90%

4 December, Friday

Time Temperature Precipitation Wind Pressure Humidity
00:00 +1°C° 0 mm 3 mps 750 mmHg 89%
01:00 +2°C° 0 mm 2 mps 749 mmHg 88%
02:00 0°C° 0 mm 3 mps 749 mmHg 88%
03:00 0°C° 0 mm 3 mps 748 mmHg 88%
04:00 0°C° 0 mm 3 mps 748 mmHg 88%
05:00 +1°C° 0 mm 2 mps 748 mmHg 87%
06:00 +1°C° 0 mm 2 mps 747 mmHg 87%
07:00 0°C° 0 mm 3 mps 747 mmHg 88%
08:00 -1°C° 0 mm 4 mps 747 mmHg 89%
09:00 0°C° 0 mm 4 mps 746 mmHg 90%
10:00 +3°C° 0 mm 4 mps 746 mmHg 88%
11:00 +5°C° 0 mm 5 mps 746 mmHg 84%
12:00 +7°C° 0 mm 6 mps 745 mmHg 82%
13:00 +7°C° 0 mm 6 mps 745 mmHg 83%
14:00 +8°C° 0 mm 5 mps 744 mmHg 83%
15:00 +8°C° 0 mm 5 mps 743 mmHg 83%
16:00 +8°C° 0 mm 5 mps 743 mmHg 85%
17:00 +7°C° 0.1 mm 5 mps 743 mmHg 88%
18:00 +7°C° 0.3 mm 5 mps 742 mmHg 89%
19:00 +6°C° 0 mm 5 mps 742 mmHg 88%
20:00 +6°C° 1.2 mm 5 mps 742 mmHg 97%
21:00 +5°C° 1 mm 6 mps 742 mmHg 97%
22:00 +5°C° 0.1 mm 7 mps 742 mmHg 96%
23:00 +5°C° 0 mm 7 mps 741 mmHg 93%
Show more

We Need Your Consent

Meteoprog and our Service Providers may store and access personal data such as cookies, device identifiers or other similar technologies on your device and process such data to personalise content and ads, as well as provide social media features and to analyse the traffic.

  • Store and/or access information on your device

    Cookies, device identifiers or other information can be stored or accessed on your device for the purposes indicated above.

  • Personalised ads and content, ad and content measurement, audience insights, and products development

    Ads and content can be personalised based on a profile. More data can be added to better personalise ads and content. Ad and content performance can be measured. Insights about the audience who saw the ads and content can be derived. Such data can be used to develop or improve user’s experience, systems and software.

By clicking ‘I Agree’ you will allow the use of indicated cookies, device identifiers, web beacons or other similar technologies. Your settings can be changed in the browser on your device.

For certain purposes, legitimate interests may be relied on, rather than consent. You can read more about this in our Privacy and Cookie Policy.